Regional Weather Roundup
Issued by NWS

Home | Current Version | Previous Version | Text Only | Print | Product List | Glossary Off
Versions: 1 2 3 4 5 6 7 8 9 10 11 12 13 14 15 16 17 18 19 20 21 22 23 24 25 26 27 28 29 30 31 32 33 34 35 36 37 38 39 40 41 42 43 44 45 46 47 48 49 50

000
ASUS45 KPSR 272200
RWRAZ

PRELIMINARY ARIZONA REGIONAL HOURLY WEATHER ROUNDUP
NATIONAL WEATHER SERVICE PHOENIX AZ
300 PM MST TUE JAN 27 2015

NOTE: FAIR INDICATES FEW OR NO CLOUDS BELOW 12,000 FEET WITH NO
SIGNIFICANT WEATHER AND/OR OBSTRUCTIONS TO VISIBILITY.

AZZ001>003-036-272300-
NORTHWEST ARIZONA

CITY           SKY/WX    TMP DP  RH WIND       PRES   REMARKS
KINGMAN        MOSUNNY   61  46  57 SW14      30.21F
$$

AZZ004>008-015-016-018-272300-
NORTH CENTRAL ARIZONA

CITY           SKY/WX    TMP DP  RH WIND       PRES   REMARKS
GRAND CANYON   PTSUNNY   50  38  63 SW14      30.29F
PRESCOTT       MOSUNNY   58  34  40 S12       30.25F
FLAGSTAFF      NOT AVBL
PAYSON         MOSUNNY   57  41  54 VRB5      30.29F
$$

AZZ009>014-017-272300-
NORTHEAST ARIZONA

CITY           SKY/WX    TMP DP  RH WIND       PRES   REMARKS
WINSLOW        NOT AVBL
SAINT JOHNS    CLOUDY    60  37  42 CALM      30.26F
WINDOW ROCK    PTSUNNY   55  33  43 SW12      30.30F
SHOW LOW       CLOUDY    54  36  50 S15G21    30.33R
$$

AZZ023-272300-
GREATER PHOENIX AREA

CITY           SKY/WX    TMP DP  RH WIND       PRES   REMARKS
PHOENIX        PTSUNNY   73  47  39 S5        30.15F
GLENDALE       MOSUNNY   72  46  40 E6        30.17F
DEER VALLEY    CLOUDY    70  48  45 CALM      30.16F
SCOTTSDALE     CLOUDY    71  47  42 S3        30.17F
MESA-FALCON    PTSUNNY   70  46  43 N7        30.15F
MESA-GATEWAY   PTSUNNY   68  52  56 W3        30.18F
CHANDLER       PTSUNNY   70  48  46 CALM      30.16F
$$

AZZ027-028-272300-
SOUTHWEST MARICOPA COUNTY AND PINAL COUNTY

CITY           SKY/WX    TMP DP  RH WIND       PRES   REMARKS
CASA GRANDE    CLOUDY    64  52  63 CALM      30.17F
GILA BEND      PTCLDY    72  53  51 N7        30.14F
$$

AZZ503-504-507>509-272300-
SOUTHEAST ARIZONA

CITY           SKY/WX    TMP DP  RH WIND       PRES   REMARKS
TUCSON         SUNNY     73  48  41 CALM      30.17F
DAVIS-MONTHAN  SUNNY     72  48  41 VRB5      30.15F
RYAN FIELD       N/A     72  50  46 W10       30.17F
NOGALES        MOSUNNY   71  45  39 SW6       30.19F
SIERRA VISTA   PTSUNNY   68  41  37 NE3       30.22F
SAFFORD        SUNNY     70  33  25 VRB3      30.18F
$$

AZZ020-021-025-026-031-272300-
SOUTHWEST ARIZONA

CITY           SKY/WX    TMP DP  RH WIND       PRES   REMARKS
YUMA           PTSUNNY   70  56  61 N6        30.15F
$$

CAZ031-033-041-043-047-048-061-272300-
SOUTHERN CALIFORNIA

CITY           SKY/WX    TMP DP  RH WIND       PRES   REMARKS
DOWNTOWN L.A.  SUNNY     72  51  47 VRB3      30.14S
L.A. AIRPORT   MOSUNNY   65  57  75 W13       30.16S
SAN DIEGO      PTSUNNY   70  48  45 NW9       30.15S
BURBANK        MOSUNNY   69  45  41 SW8       30.14F
ONTARIO        MOSUNNY   69  46  43 VRB5      30.15S
RIVERSIDE      MOSUNNY   69  48  47 SW5       30.14F
PALM SPRINGS   MOSUNNY   69  50  50 VRB5      30.19S
EL CENTRO NAS  PTSUNNY   66  55  67 W5        30.17F
IMPERIAL       CLOUDY    65  54  67 W3        30.17F
BLYTHE         MOSUNNY   67  55  65 VRB3      30.17F
$$

NVZ020-UTZ003-272300-
SOUTHERN NEVADA-UTAH

CITY           SKY/WX    TMP DP  RH WIND       PRES   REMARKS
LAS VEGAS      NOT AVBL
SALT LAKE CITY PTSUNNY   57  35  43 S17G24    30.15R
$$

NMZ009-TXZ055-272300-
NEW MEXICO-WEST TEXAS

CITY           SKY/WX    TMP DP  RH WIND       PRES   REMARKS
ALBUQUERQUE    MOSUNNY   58  25  28 CALM      30.26F
EL PASO        MOSUNNY   66  40  38 SE3       30.21F
$$


........................KEY........................
SKY/WX - SKY CONDITION/WEATHER
TMP    - TEMPERATURE IN FAHRENHEIT
DP     - DEW POINT IN FAHRENHEIT
RH     - RELATIVE HUMIDITY IN PERCENT
WIND   - DIRECTION AND SPEED IN MILES PER HOUR (MPH)
VRB    - VARIABLE WIND DIRECTION
PRES   - MEAN SEA LEVEL PRESSURE IN INCHES OF MERCURY
         F - FALLING PRESSURE   R - RISING PRESSURE
         S - STEADY PRESSURE
VSB    - VISIBILITY IN MILES
HX     - HEAT INDEX IN FAHRENHEIT
WCI    - WIND CHILL INDEX IN FAHRENHEIT
TC     - TEMPERATURE IN CELSIUS WHICH IS ALSO KNOWN AS
         TEMPERATURE IN CENTIGRADE
AFB    - AIR FORCE BASE
         LUKE AFB IS LUKE AIR FORCE BASE
         DAVIS-MONTHAN IS DAVIS-MONTHAN AIR FORCE BASE
NAS    - NAVAL AIR STATION
         EL CENTRO NAS IS EL CENTRO NAVAL AIR STATION
N/A    - NOT AVAILABLE


USA.gov is the U.S. government's official web portal to all federal, state and local government web resources and services.